Lid_Strength_Index
1 2 3 3 11 11 15 13 9 10 10 7 6 7 8 7 9 12 2 1 0 0 0 -1 -2 -1 -1 -1 -1 -1 -1 -1 -1 -1 -1 -1 -1 -1 -1 -1 -1 -1 -1 -1 -1 -1 -1 -1 -1
3 2 3 6 13 16 14 10 11 9 7 6 6 6 7 9 5 4 3 0 -0 -0 0 -0 -2 -1 -1 -1 -1 -1 -1 -1 -1 -1 -1 -1 -1 -1 -1 -1 -1 -1 -1 -2 -1 -1 -1 -2 -2
1 2 6 10 13 15 14 10 9 7 6 6 7 5 7 8 4 4 1 0 -0 0 -0 -0 -1 -1 -1 -1 -1 -1 -1 -1 -1 -1 -1 -1 -1 -1 -1 -1 -1 -1 -2 -2 -2 -2 -2 -2 -2
2 4 6 12 14 11 11 9 8 8 7 5 6 9 5 3 4 2 0 -0 0 0 -0 -1 -2 -1 -1 -1 -1 -1 -1 -1 -1 -1 -1 -1 -1 -1 -1 -1 -1 -1 -1 -2 -2 -2 -2 -2 -2
2 6 12 13 13 10 8 7 7 8 7 7 6 9 8 3 1 1 1 0 1 1 0 -0 -1 -1 -1 -1 -1 -1 -1 -1 -1 -1 -1 -1 -1 -1 -1 -1 -1 -2 -2 -2 -2 -2 -2 -2 -2
7 7 13 15 12 9 8 6 7 7 7 7 7 8 7 2 2 1 1 1 0 0 0 0 -1 -1 -1 -2 -2 -2 -2 -2 -2 -2 -2 -1 -1 -1 -1 -1 -1 -2 -2 -2 -2 -2 -2 -2 -2
8 10 13 12 12 10 8 6 7 7 8 7 5 9 7 4 2 1 1 1 0 0 0 0 0 -1 -2 -2 -2 -2 -2 -2 -2 -2 -2 -2 -2 -1 -1 -1 -1 -2 -2 -2 -2 -2 -2 -2 -2
7 9 12 12 12 10 7 6 5 7 7 4 4 9 9 4 2 1 1 1 1 1 0 1 1 0 0 0 -2 -2 -2 -2 -2 -2 -2 -2 -2 -2 -2 -2 -2 -2 -2 -2 -2 -2 -2 -2 -2
5 11 14 12 11 9 7 8 5 4 6 5 5 5 4 2 2 2 2 2 2 1 2 2 1 1 1 0 -0 -2 -2 -2 -2 -2 -2 -2 -0 0 -1 -1 -2 -2 -2 -2 -2 -2 -2 -2 -2
8 12 11 8 8 9 7 7 6 6 7 7 6 4 3 3 3 4 4 3 3 2 2 2 2 1 1 0 0 0 0 -0 -0 -0 -0 -0 -0 0 0 -1 -2 -2 -2 -2 -2 -2 -2 -1 -1
8 11 8 7 6 6 7 7 6 7 9 7 7 6 4 4 4 4 3 3 3 2 2 3 2 1 2 1 1 2 1 0 1 -0 0 1 0 0 1 1 0 -0 -1 -1 -1 -0 0 0 0
9 7 7 6 6 6 7 7 7 7 6 4 5 4 4 5 4 4 4 3 3 2 2 3 2 2 2 2 2 2 2 2 1 1 1 1 1 1 1 1 1 1 0 0 0 1 0 0 0
9 7 6 6 6 6 6 7 7 7 5 4 4 4 5 4 4 3 3 2 2 3 2 3 3 3 3 3 3 3 2 2 2 1 1 1 1 1 1 1 1 1 1 1 1 1 1 1 1
7 7 6 6 6 6 7 8 7 6 5 5 5 5 5 4 4 3 3 3 3 2 2 2 3 2 2 2 3 3 2 2 2 1 1 1 1 1 1 1 1 1 1 1 1 1 1 1 1
7 9 7 7 7 7 7 9 9 6 6 6 6 6 5 4 4 4 4 4 4 2 1 2 3 2 3 2 3 3 3 2 2 1 0 1 1 1 1 1 1 1 1 1 1 1 0 1 1
9 9 11 8 7 6 7 11 8 6 7 7 6 6 5 4 4 4 2 2 2 2 1 2 1 2 3 2 3 3 2 2 2 1 1 1 1 1 1 1 1 0 1 1 1 1 1 1 2
11 13 12 10 7 7 9 11 8 6 7 8 7 6 5 5 4 4 2 2 3 3 2 2 2 2 2 3 3 2 1 1 0 1 0 0 -0 -0 -0 1 0 -1 0 1 1 1 2 2 3
13 13 11 11 9 8 10 11 8 7 7 7 7 6 6 5 4 3 3 2 2 3 3 2 2 3 3 3 2 1 1 1 1 0 0 -0 -0 -1 -1 -0 -0 0 1 1 1 1 1 2 1
10 11 12 10 8 10 11 10 9 8 7 8 7 7 6 6 4 3 3 2 3 3 4 3 3 2 3 2 2 2 1 2 1 1 1 -0 -0 -1 -0 -0 -0 1 1 1 1 2 2 2 1
10 11 11 9 8 9 11 11 9 8 8 7 7 7 6 6 5 4 3 3 3 3 3 3 3 2 2 1 2 1 1 1 2 1 2 2 0 0 -0 1 1 2 2 2 2 2 3 2 2
10 11 10 11 9 10 11 12 11 8 7 7 6 6 6 6 6 5 4 3 3 3 3 4 3 2 2 2 2 2 3 3 2 2 1 2 1 0 1 1 1 2 2 2 2 2 3 3 2
12 8 9 10 12 14 11 17 12 10 9 8 8 7 7 6 5 4 4 3 3 3 3 3 3 2 3 3 3 4 4 4 3 2 2 2 1 1 1 1 1 1 1 2 1 1 2 2 3
10 8 10 10 12 13 13 15 13 11 11 10 9 7 7 5 5 5 4 3 3 3 4 4 4 4 4 3 3 3 4 3 2 2 3 2 2 1 1 -0 -0 0 0 -0 0 0 1 1 2
8 10 11 13 14 16 14 14 14 13 11 10 8 7 6 6 5 4 3 3 3 4 5 5 5 4 3 4 3 3 2 2 3 4 4 3 2 1 1 1 1 0 0 0 0 0 0 1 1
10 13 16 17 17 17 14 15 14 10 9 8 9 8 7 5 5 5 4 4 5 5 5 4 3 3 2 2 2 2 3 3 4 4 4 4 3 3 3 3 2 2 1 0 0 0 0 0 1
12 13 15 20 20 17 14 17 14 9 8 7 7 7 6 6 5 5 4 4 4 4 4 3 3 3 2 2 4 3 3 4 4 4 4 4 4 4 4 4 3 2 1 0 -0 0 0 0 1
11 13 12 15 16 18 16 13 10 9 9 8 8 7 7 6 5 5 5 4 4 4 3 3 4 5 4 4 4 4 4 4 5 5 5 5 4 4 4 4 3 3 2 0 -0 0 1 0 0
11 9 15 15 21 22 18 17 16 13 11 9 9 8 7 6 5 5 5 5 4 4 4 4 4 5 4 4 5 5 5 6 6 6 5 5 5 5 4 4 4 3 2 1 1 1 1 1 1
12 13 13 14 15 19 20 17 11 11 10 10 9 8 7 6 6 5 5 5 4 4 5 4 4 4 5 5 6 6 6 6 6 6 6 6 5 4 4 4 4 3 3 2 2 1 1 1 1
10 12 13 16 17 16 17 17 9 9 9 8 8 7 6 6 5 5 4 4 5 5 5 5 5 5 5 6 6 7 7 7 7 7 6 5 5 5 5 4 4 4 3 3 3 2 1 1 1